Theta_e
348 350 346 347 351 351 352 353 348 345 350 353 352 352 352 353 353 351 353 354 354 354 352 351 354 353 354 354 354 353 352 353 352 354 353 352 350 347 352 347 348 346 347
347 351 346 346 343 340 340 345 343 343 354 353 352 354 353 352 352 353 353 354 354 354 353 351 355 354 354 351 353 353 354 353 353 351 350 351 351 352 353 348 346 349 351
347 351 350 345 342 341 342 342 342 351 354 351 354 353 353 353 353 352 352 353 352 353 352 354 353 354 354 354 354 354 354 346 344 348 349 346 349 351 349 346 348 351 351
347 350 351 350 347 348 345 345 345 354 354 352 354 354 354 352 354 352 351 349 353 354 351 353 352 350 351 352 352 351 349 339 347 351 351 342 344 352 352 350 350 350 347
347 348 353 349 352 354 351 351 352 354 354 354 353 353 354 355 355 354 354 354 345 349 354 353 353 353 354 351 352 351 346 345 347 350 348 346 345 348 350 337 337 347 350
347 350 350 350 351 354 353 354 354 354 354 354 354 354 354 353 354 347 349 354 354 354 350 353 352 352 352 354 354 351 344 345 348 343 343 343 346 338 343 347 345 341 337
347 352 350 352 353 354 354 354 354 353 353 353 353 353 353 352 350 351 353 354 348 347 354 351 354 353 352 350 352 350 339 347 350 344 342 344 346 345 350 351 350 348 348
348 347 352 352 353 354 354 354 354 353 354 353 353 352 350 350 350 352 351 350 349 352 351 350 350 353 353 351 351 349 341 349 347 344 343 343 338 341 348 340 337 338 337
346 346 348 349 352 354 354 354 354 353 353 353 352 349 347 352 351 350 349 350 352 352 352 350 350 350 349 352 351 351 347 345 350 349 342 346 342 331 336 335 333 343 347
344 346 346 347 348 348 350 353 352 353 353 352 347 350 351 345 345 337 337 345 347 351 351 351 351 351 351 351 343 347 348 343 347 348 342 347 339 333 340 347 346 338 343
344 345 344 345 346 349 349 350 351 351 350 350 351 348 342 346 345 350 347 344 344 347 352 352 351 351 351 350 348 347 348 347 343 344 346 346 345 344 337 353 349 345 338
343 343 344 345 345 346 345 350 348 352 350 349 347 331 333 338 343 343 344 339 339 335 339 350 347 350 348 345 350 349 344 341 342 344 342 344 342 342 346 352 351 348 346
343 343 344 344 345 345 345 350 349 349 350 344 339 332 336 334 341 343 344 345 343 343 343 347 350 348 346 347 345 350 346 341 340 344 344 341 338 339 345 350 352 351 346
342 343 344 343 344 346 346 348 349 349 348 336 337 334 336 337 340 345 345 342 343 341 342 345 348 349 349 348 343 343 341 341 344 342 343 342 341 340 341 348 349 350 351
342 342 344 345 346 347 350 350 348 347 344 340 335 340 338 342 346 346 343 343 344 342 342 344 348 349 348 347 347 341 341 341 341 341 345 345 344 342 339 349 349 350 350
343 344 344 344 348 348 348 349 348 348 344 344 343 341 345 343 342 340 341 341 344 343 344 347 349 347 345 347 348 342 342 342 342 344 346 347 345 343 338 342 344 348 349
346 346 347 347 348 351 349 350 347 345 342 344 345 345 344 345 344 343 343 344 345 345 348 349 348 348 349 347 349 347 340 343 345 346 344 344 347 345 340 337 341 340 342
347 348 348 348 348 352 350 351 345 347 346 346 348 347 346 347 346 345 345 346 345 346 348 349 347 348 343 346 348 343 343 343 344 344 346 346 346 347 346 341 338 338 339
351 352 353 352 350 350 351 351 350 348 349 348 348 348 348 347 346 346 347 346 346 345 346 349 346 346 345 344 346 347 346 346 345 346 345 346 345 346 347 347 342 339 339
352 354 355 355 354 353 353 352 352 351 351 350 350 350 350 348 347 347 346 346 346 347 349 349 348 346 348 349 347 345 348 348 348 346 346 347 347 346 345 347 346 346 343
351 354 356 356 356 355 355 355 352 354 351 351 350 352 351 350 350 350 350 350 352 351 352 349 350 349 349 348 347 347 344 344 345 346 345 345 346 348 346 346 344 348 348
352 354 357 357 358 357 356 355 354 351 353 352 352 353 352 351 351 351 353 352 352 351 351 351 350 349 341 343 349 349 347 346 346 346 344 345 345 346 346 347 347 347 348
351 356 356 358 359 359 357 356 357 357 354 351 351 353 353 353 353 353 353 353 352 351 349 349 350 348 343 345 347 349 355 356 344 341 345 347 349 347 346 346 347 348 348
349 352 356 358 360 359 359 356 356 355 353 349 352 353 353 354 354 352 354 355 355 347 346 345 344 342 347 347 347 350 348 348 351 352 338 342 346 345 346 346 346 347 347
349 351 354 358 360 360 360 359 357 355 352 353 351 353 354 355 356 355 354 356 355 352 351 347 343 352 347 347 348 347 347 344 345 348 345 345 346 345 347 346 347 346 346
349 350 353 358 361 361 360 361 360 357 357 353 356 352 353 355 355 355 355 357 356 351 352 352 351 352 352 352 350 349 347 344 345 345 347 346 350 346 342 346 346 345 345
Wind_Speed
21 17 18 19 19 20 20 18 17 16 14 14 14 14 14 13 11 11 12 12 12 11 12 13 13 11 12 13 16 15 17 17 16 16 16 15 14 17 14 13 17 15 15
25 19 19 20 21 21 20 19 18 14 13 13 14 13 12 11 11 11 11 12 11 12 12 13 13 13 12 13 14 15 14 15 16 16 16 15 13 13 13 14 16 14 15
26 22 19 21 21 19 18 18 17 13 12 13 12 12 10 10 10 11 11 11 11 11 12 12 13 13 13 12 12 13 13 13 15 16 18 16 11 10 11 12 14 14 14
26 23 20 19 18 17 17 16 16 13 11 11 11 9 8 9 9 10 11 11 11 11 11 11 13 13 13 12 12 12 12 13 12 13 13 14 11 10 10 11 12 12 11
25 23 21 20 18 16 16 15 15 13 11 10 9 10 10 10 9 8 9 9 10 10 9 10 10 11 10 9 10 10 9 9 4 4 9 16 12 9 8 10 10 11 7
25 24 20 18 17 15 15 14 13 13 11 10 10 9 9 8 7 7 7 8 8 8 9 8 7 9 8 8 9 7 8 7 1 5 8 10 15 9 10 8 9 8 7
26 22 19 18 17 16 15 14 13 12 11 10 9 8 7 6 5 6 6 6 5 5 7 6 5 7 7 7 8 7 9 3 1 4 8 7 11 10 9 8 7 7 7
25 20 19 18 17 16 14 12 11 10 9 8 7 6 5 4 3 4 3 2 2 3 3 4 4 5 5 6 7 6 8 4 6 8 9 9 10 9 9 6 6 6 5
22 22 19 17 16 15 13 11 10 9 8 7 6 4 2 3 4 4 3 1 1 1 2 3 4 4 5 6 7 8 8 8 15 5 14 14 11 8 8 6 5 5 4
21 22 19 19 16 14 11 10 8 7 6 5 4 2 3 5 4 4 3 3 2 3 4 5 5 6 6 6 8 10 10 12 16 13 6 9 11 8 8 8 6 6 7
18 22 21 20 17 14 12 10 7 6 6 5 6 5 3 6 13 9 7 5 6 5 5 6 7 8 8 10 12 12 12 12 17 11 1 13 5 6 10 11 9 7 7
19 19 19 19 18 16 14 14 10 9 8 11 8 9 16 12 10 11 3 7 7 5 7 9 9 9 9 12 16 15 13 14 18 16 4 7 2 9 13 12 13 10 9
20 19 19 17 16 17 13 15 12 12 14 10 10 12 14 17 13 11 11 3 6 7 7 10 9 10 13 13 9 16 14 13 16 14 10 8 7 10 14 14 13 13 13
21 19 19 19 17 17 17 14 13 15 16 14 11 14 16 17 15 14 11 10 9 9 10 9 11 12 11 11 11 10 11 11 14 11 12 13 13 14 16 17 17 15 15
20 19 18 17 18 15 10 11 12 14 15 12 16 12 17 13 10 10 13 10 11 12 13 10 8 9 9 10 14 11 13 12 14 13 8 13 12 15 18 17 18 18 18
17 19 17 18 17 17 18 15 16 15 13 13 14 13 13 13 14 14 14 14 14 14 12 6 7 8 8 12 15 12 12 13 13 12 11 12 12 11 18 19 18 19 21
14 15 16 17 19 18 17 16 16 16 15 15 15 13 15 14 16 15 15 16 17 15 7 5 8 9 9 12 14 16 13 14 15 17 13 15 13 13 15 20 22 21 21
14 13 14 16 17 19 18 17 17 15 18 18 15 15 15 15 15 14 16 17 15 12 9 10 9 7 6 12 12 13 15 14 15 16 15 15 16 15 15 16 20 22 22
16 17 14 14 13 17 17 18 16 14 16 17 17 16 16 17 15 14 14 15 12 13 12 10 10 9 10 10 13 14 14 13 18 16 18 16 16 15 15 20 17 17 19
17 14 15 15 14 14 15 17 15 15 16 17 17 17 16 16 14 13 12 10 11 12 11 10 9 8 10 12 14 13 13 17 16 17 14 19 17 16 14 11 17 16 19
17 18 18 16 15 16 16 16 15 16 15 15 16 16 13 13 12 13 14 11 12 12 12 9 10 9 9 10 7 12 15 17 18 21 21 19 19 21 14 15 16 20 21
18 16 18 18 17 18 15 13 14 14 13 12 12 11 11 12 12 13 14 12 12 13 13 12 11 8 11 14 10 7 2 10 7 18 17 17 13 12 12 17 19 16 17
19 19 19 19 18 18 16 12 9 8 9 8 9 10 11 13 13 14 14 13 11 15 12 8 7 6 11 13 16 11 4 2 3 15 25 16 10 15 15 15 14 16 19
16 16 18 19 20 19 17 15 13 11 10 9 10 10 7 11 13 14 14 13 13 13 15 15 16 12 13 16 11 17 11 5 2 3 9 22 18 17 13 12 14 17 17
18 17 17 18 20 19 19 18 14 13 13 11 10 7 6 8 12 12 14 13 10 7 8 8 8 11 10 15 13 9 8 7 5 6 3 11 9 16 15 19 16 14 16
13 13 16 18 19 17 18 17 16 13 10 7 6 6 9 13 9 11 12 11 9 7 5 7 8 10 9 10 9 9 7 4 5 7 2 8 13 13 17 27 16 15 15
Wind_Direction
141 142 145 140 140 140 138 138 138 131 122 120 118 115 112 109 107 102 101 103 106 102 97 95 99 114 106 104 102 103 108 109 105 102 101 101 101 102 98 100 102 100 103
139 142 146 146 147 145 143 142 143 137 127 122 120 119 118 115 105 102 105 105 109 104 102 97 102 106 107 110 109 113 114 112 114 123 118 108 103 102 93 105 104 110 108
140 143 143 151 152 152 150 146 144 138 134 127 125 125 124 118 108 101 105 109 105 108 106 105 109 108 109 106 115 115 118 123 131 139 130 104 103 103 101 105 106 107 107
140 145 144 151 156 154 154 155 151 141 140 134 127 124 119 118 111 103 105 108 109 108 112 112 109 113 112 112 112 121 126 131 145 184 171 114 111 112 108 107 108 108 114
146 144 149 150 147 143 146 146 143 139 138 130 120 116 117 109 107 107 109 115 102 110 108 110 121 119 119 121 125 124 131 133 150 259 125 104 121 126 117 107 106 107 129
151 143 154 152 149 146 143 142 139 136 138 133 122 117 111 102 105 102 98 102 106 121 120 117 126 132 132 120 124 127 130 139 151 88 73 90 107 134 121 124 132 134 127
145 135 152 152 148 147 147 146 143 144 144 134 125 119 113 108 114 112 107 98 97 108 115 127 126 132 139 145 135 138 148 136 339 137 127 153 124 132 132 134 133 134 129
139 142 153 158 155 151 149 148 143 140 136 128 122 120 117 121 122 110 104 100 108 95 138 148 161 160 154 159 170 184 184 229 237 189 179 153 139 151 155 161 159 155 156
139 151 157 161 159 155 157 155 151 145 142 134 128 133 122 180 180 167 185 181 182 214 221 207 205 192 197 192 199 200 213 239 254 283 181 169 170 168 169 169 169 165 173
152 154 163 163 165 168 172 167 163 158 153 152 145 140 222 256 248 192 68 201 217 245 245 227 228 223 212 219 226 226 238 251 261 270 228 142 150 158 179 189 194 194 194
168 157 168 170 170 172 174 188 183 184 178 167 190 196 290 332 308 238 156 257 268 243 240 234 231 231 231 230 226 225 233 244 258 253 337 202 189 191 191 202 213 214 216
182 168 167 170 177 179 190 178 192 195 196 201 209 231 269 291 296 322 331 301 275 277 263 238 238 227 234 240 223 213 220 236 247 263 273 197 34 213 203 208 210 223 228
183 177 171 187 185 176 196 178 191 204 201 197 228 247 249 281 295 286 275 266 270 245 273 230 230 234 234 250 231 214 211 215 236 246 261 305 262 230 217 215 215 227 234
183 184 182 187 194 191 189 203 202 201 200 213 231 243 254 272 267 257 281 278 259 265 266 248 245 228 249 248 262 274 263 254 260 231 230 236 242 248 232 224 225 229 231
184 189 194 193 188 211 214 199 211 206 207 226 237 254 253 262 271 255 251 263 274 277 274 270 238 254 241 251 246 234 240 247 256 260 233 216 231 247 235 227 231 231 232
183 186 197 197 191 208 219 220 218 204 219 233 235 242 239 248 262 255 260 265 265 260 263 221 243 260 263 251 260 243 239 246 242 254 255 226 239 244 233 226 231 230 234
185 185 198 201 194 201 214 216 215 213 227 236 240 243 243 243 247 253 265 261 262 247 238 222 240 253 261 266 245 241 231 240 238 238 243 257 235 237 232 229 234 237 240
188 185 199 204 205 192 206 209 216 221 225 229 236 241 238 240 247 259 257 251 243 236 237 228 239 240 261 265 274 245 244 239 242 246 239 243 249 226 227 228 233 242 245
187 182 197 204 213 196 198 205 210 226 224 232 231 233 235 231 240 242 249 244 237 233 239 239 240 244 248 252 254 261 252 259 257 233 237 234 241 249 227 230 224 227 235
187 193 201 203 207 210 207 201 213 224 228 228 230 230 232 222 234 230 239 234 226 237 237 236 234 250 247 243 245 250 270 256 243 267 243 223 231 231 234 229 215 223 234
201 188 202 202 198 206 211 207 209 220 228 231 236 231 227 233 235 232 240 235 232 233 239 239 245 257 265 271 261 260 265 264 251 237 244 239 233 228 235 224 228 237 232
194 208 202 209 203 207 213 227 212 210 227 233 239 241 227 235 236 233 237 241 238 241 239 237 244 235 265 269 258 267 280 274 308 293 237 256 248 241 240 238 235 232 254
198 193 207 206 206 209 217 215 221 228 237 234 242 243 229 230 233 234 235 240 240 242 250 241 240 237 261 284 242 236 227 221 111 265 296 237 255 242 236 242 247 243 241
196 201 201 203 201 208 209 222 216 224 234 237 231 227 216 228 234 240 238 238 241 246 242 245 249 247 246 243 245 253 279 307 309 336 28 288 243 240 257 238 238 233 240
193 197 196 200 200 203 203 214 212 218 229 220 238 159 205 228 230 231 233 227 237 225 223 227 231 233 235 232 237 244 259 275 240 212 245 239 360 282 268 268 246 244 246
207 191 191 194 196 201 205 213 217 226 225 234 221 222 232 236 208 229 231 224 226 243 223 236 248 238 230 231 240 239 234 235 265 242 245 285 290 275 242 237 252 247 239